Taunton, MA

2:41 PM EDT on September 20, 2017 (GMT -0400)
Taunton Municipal

Weather History for KTAN - October, 2011

Change the Weather History Date:

Monday, October 10, 2011

  Actual Average Record
Temperature  
Mean Temperature 63 °F -  
Max Temperature 84 °F 61 °F 86 °F (1949)
Min Temperature 44 °F 40 °F 25 °F (1974)
Degree Days  
Heating Degree Days 2    
Growing Degree Days 13 (Base 50)    
Moisture  
Dew Point 51 °F    
Average Humidity 88    
Maximum Humidity 100    
Minimum Humidity 42    
Precipitation  
Precipitation 0.01 in - - ()
Sea Level Pressure  
Sea Level Pressure 30.15 in    
Wind  
Wind Speed 1 mph (NW)    
Max Wind Speed 8 mph    
Max Gust Speed -    
Visibility 5 miles    
Events Fog    
Averages and records for this station are not official NWS values.
T = Trace of Precipitation, MM = Missing Value Source: NWS Daily Summary

Daily Weather History Graph

Daily Weather History Graph

Search for Another Location

Airport or City:

Trip Planner

Search our weather history database for the weather conditions in past years. The results will help you decide how hot, cold, wet, or windy it might be!

Date:

Astronomy

Oct. 10, 2011 Rise Set
Actual Time 6:50 AM EDT 6:11 PM EDT
Civil Twilight 6:22 AM EDT 6:39 PM EDT
Nautical Twilight 5:50 AM EDT 7:11 PM EDT
Astronomical Twilight 5:17 AM EDT 7:43 PM EDT
Moon 5:13 PM EDT (10/10) 5:28 AM EDT (10/10)
Length of Visible Light 12h 16m
Length of Day
11h 20m
Waxing Gibbous, 98% of the Moon is Illuminated
Oct 10
Waxing Gibbous
Oct 11
Full
Oct 19
Last Quarter
Oct 26
New
Nov 2
First Quarter

Hourly Weather History & Observations

Time (EDT) Temp. Heat Index Dew Point Humidity Pressure Visibility Wind Dir Wind Speed Gust Speed Precip Events Conditions
12:13 AM 50.0 °F - 50.0 °F 100% 30.20 in 1.2 mi Calm Calm - N/A   Clear
12:24 AM 50.0 °F - 50.0 °F 100% 30.20 in 2.0 mi Calm Calm - N/A   Clear
12:32 AM 50.0 °F - 50.0 °F 100% 30.20 in 6.0 mi Calm Calm - N/A   Clear
12:52 AM 50.0 °F - 48.9 °F 96% 30.20 in 7.0 mi Calm Calm - N/A   Clear
1:52 AM 50.0 °F - 48.9 °F 96% 30.19 in 6.0 mi Calm Calm - N/A   Clear
2:37 AM 48.2 °F - 48.2 °F 100% 30.18 in 1.8 mi Calm Calm - N/A   Clear
2:45 AM 48.2 °F - 48.2 °F 100% 30.18 in 1.0 mi Calm Calm - N/A   Clear
2:52 AM 48.0 °F - 46.9 °F 96% 30.17 in 0.8 mi Calm Calm - N/A   Clear
3:01 AM 48.2 °F - 48.2 °F 100% 30.18 in 1.8 mi Calm Calm - N/A   Clear
3:21 AM 46.4 °F - 46.4 °F 100% 30.17 in 0.8 mi Calm Calm - N/A   Clear
3:41 AM 46.4 °F - 46.4 °F 100% 30.16 in 1.2 mi Calm Calm - N/A   Clear
3:52 AM 46.9 °F - 46.0 °F 97% 30.17 in 0.8 mi Calm Calm - N/A   Clear
4:18 AM 46.4 °F - 46.4 °F 100% 30.17 in 2.0 mi Calm Calm - N/A   Clear
4:40 AM 46.4 °F - 46.4 °F 100% 30.18 in 6.0 mi Calm Calm - N/A   Clear
4:52 AM 46.0 °F - 46.0 °F 100% 30.18 in 5.0 mi Calm Calm - N/A   Clear
5:24 AM 46.4 °F - 44.6 °F 93% 30.17 in 2.5 mi Calm Calm - N/A   Clear
5:52 AM 46.0 °F - 45.0 °F 96% 30.18 in 2.5 mi Calm Calm - N/A   Clear
6:02 AM 46.4 °F - 44.6 °F 93% 30.18 in 1.2 mi Calm Calm - N/A   Clear
6:13 AM 44.6 °F - 44.6 °F 100% 30.18 in 0.5 mi Calm Calm - N/A Fog Fog
6:30 AM 44.6 °F - 44.6 °F 100% 30.18 in 1.5 mi Calm Calm - N/A   Clear
6:32 AM 44.6 °F - 44.6 °F 100% 30.17 in 4.0 mi Calm Calm - N/A   Clear
6:52 AM 45.0 °F - 45.0 °F 100% 30.17 in 3.0 mi Calm Calm - N/A   Clear
7:19 AM 46.4 °F - 44.6 °F 93% 30.17 in 2.0 mi Calm Calm - N/A   Clear
7:31 AM 48.2 °F - 46.4 °F 93% 30.18 in 3.0 mi Calm Calm - N/A   Clear
7:52 AM 51.1 °F - 51.1 °F 100% 30.19 in 8.0 mi Calm Calm - 0.01 in   Clear
8:52 AM 63.0 °F - 57.9 °F 84% 30.19 in 10.0 mi Calm Calm - N/A   Clear
9:52 AM 69.1 °F - 55.9 °F 63% 30.17 in 10.0 mi West 5.8 mph - N/A   Clear
10:52 AM 75.9 °F - 57.0 °F 52% 30.16 in 10.0 mi WNW 6.9 mph - N/A   Clear
11:52 AM 80.1 °F 80.1 °F 55.0 °F 42% 30.14 in 10.0 mi North 8.1 mph - N/A   Clear
12:52 PM 81.0 °F 80.8 °F 55.9 °F 42% 30.12 in 10.0 mi Variable 5.8 mph - N/A   Clear
1:52 PM 82.0 °F 81.7 °F 57.0 °F 42% 30.10 in 10.0 mi West 6.9 mph - N/A   Clear
2:52 PM 82.9 °F 82.6 °F 57.9 °F 42% 30.08 in 10.0 mi NW 6.9 mph - N/A   Clear
3:52 PM 82.9 °F 82.6 °F 57.9 °F 42% 30.07 in 10.0 mi NNW 8.1 mph - N/A   Clear
4:52 PM 81.0 °F 81.3 °F 59.0 °F 47% 30.07 in 10.0 mi NW 4.6 mph - N/A   Clear
5:52 PM 72.0 °F - 63.0 °F 73% 30.07 in 10.0 mi Calm Calm - N/A   Clear
6:52 PM 63.0 °F - 61.0 °F 93% 30.08 in 10.0 mi Calm Calm - N/A   Clear
7:52 PM 62.1 °F - 61.0 °F 96% 30.09 in 7.0 mi Calm Calm - N/A   Clear
8:52 PM 59.0 °F - 57.9 °F 96% 30.09 in 3.0 mi Calm Calm - N/A   Clear
9:52 PM 57.0 °F - 57.0 °F 100% 30.10 in 7.0 mi Calm Calm - N/A   Clear
10:52 PM 55.0 °F - 54.0 °F 96% 30.12 in 6.0 mi Calm Calm - N/A   Clear
11:05 PM 55.4 °F - 55.4 °F 100% 30.13 in 0.8 mi Calm Calm - N/A   Clear
11:28 PM 53.6 °F - 53.6 °F 100% 30.13 in 1.5 mi Calm Calm - N/A   Clear
11:33 PM 53.6 °F - 53.6 °F 100% 30.13 in 0.8 mi Calm Calm - N/A   Clear
11:52 PM 53.1 °F - 53.1 °F 100% 30.13 in 0.5 mi Calm Calm - N/A Fog Fog